15-06-2023, 00:00:07,     45,    0.0,   13.4,   0.00,   0.00, 1017.1,   98.8, -999.0
15-06-2023, 00:00:17,     45,    0.0,   13.4,   0.00,   0.00, 1017.1,   98.7, -999.0
15-06-2023, 00:00:27,     45,    0.0,   13.4,   0.00,   0.00, 1017.1,   98.8, -999.0
15-06-2023, 00:00:37,     45,    0.0,   13.4,   0.00,   0.00, 1017.1,   98.8, -999.0
15-06-2023, 00:00:47,     45,    0.0,   13.4,   0.00,   0.00, 1017.1,   98.9, -999.0
15-06-2023, 00:00:57,     45,    0.0,   13.3,   0.00,   0.00, 1017.1,   98.7, -999.0
15-06-2023, 00:01:07,     45,    0.0,   13.4,   0.00,   0.00, 1017.1,   98.8, -999.0
15-06-2023, 00:01:17,     45,    0.0,   13.4,   0.00,   0.00, 1017.1,   98.8, -999.0
15-06-2023, 00:01:27,     47,    0.0,   13.3,   0.00,   0.00, 1017.1,   98.8, -999.0
15-06-2023, 00:01:37,     45,    0.0,   13.3,   0.00,   0.00, 1017.1,   98.8, -999.0
15-06-2023, 00:01:47,     45,    0.0,   13.3,   0.00,   0.00, 1017.1,   98.7, -999.0
15-06-2023, 00:01:57,     45,    0.0,   13.3,   0.00,   0.00, 1017.1,   98.8, -999.0
15-06-2023, 00:02:07,     45,    0.0,   13.4,   0.00,   0.00, 1017.1,   98.8, -999.0
15-06-2023, 00:02:17,     45,    0.0,   13.3,   0.00,   0.00, 1017.1,   98.8, -999.0
15-06-2023, 00:02:27,     45,    0.0,   13.3,   0.00,   0.00, 1017.1,   98.8, -999.0
15-06-2023, 00:02:37,     45,    0.0,   13.3,   0.00,   0.00, 1017.1,   98.8, -999.0
15-06-2023, 00:02:47,     45,    0.0,   13.4,   0.00,   0.00, 1017.1,   98.8, -999.0
15-06-2023, 00:02:57,     45,    0.0,   13.3,   0.00,   0.00, 1017.1,   98.8, -999.0
15-06-2023, 00:03:07,     45,    0.0,   13.2,   0.00,   0.00, 1017.1,   98.8, -999.0
15-06-2023, 00:03:17,     45,    0.0,   13.3,   0.00,   0.00, 1017.1,   98.8, -999.0
15-06-2023, 00:03:27,     45,    0.0,   13.2,   0.00,   0.00, 1017.1,   98.7, -999.0
15-06-2023, 00:03:36,     45,    0.0,   13.3,   0.00,   0.00, 1017.1,   98.7, -999.0
15-06-2023, 00:03:47,     45,    0.0,   13.3,   0.00,   0.00, 1017.1,   98.8, -999.0
15-06-2023, 00:03:57,     45,    0.0,   13.3,   0.00,   0.00, 1017.1,   98.8, -999.0
15-06-2023, 00:04:07,     45,    0.0,   13.2,   0.00,   0.00, 1017.1,   98.8, -999.0
15-06-2023, 00:04:16,     45,    0.0,   13.2,   0.00,   0.00, 1017.1,   98.8, -999.0
15-06-2023, 00:04:27,     44,    0.0,   13.3,   0.00,   0.00, 1017.1,   98.7, -999.0
15-06-2023, 00:04:37,     45,    0.0,   13.2,   0.00,   0.00, 1017.1,   98.8, -999.0
15-06-2023, 00:04:46,     45,    0.0,   13.2,   0.00,   0.00, 1017.1,   98.8, -999.0
15-06-2023, 00:04:56,     45,    0.0,   13.1,   0.00,   0.00, 1017.1,   98.8, -999.0
15-06-2023, 00:05:07,     45,    0.0,   13.2,   0.00,   0.00, 1017.1,   98.8, -999.0
15-06-2023, 00:05:16,     45,    0.0,   13.1,   0.00,   0.00, 1017.1,   98.8, -999.0
15-06-2023, 00:05:26,     45,    0.0,   13.1,   0.00,   0.00, 1017.1,   98.8, -999.0
15-06-2023, 00:05:36,     45,    0.0,   13.1,   0.00,   0.00, 1017.1,   98.8, -999.0
15-06-2023, 00:05:46,     45,    0.0,   13.1,   0.00,   0.00, 1017.1,   98.8, -999.0
15-06-2023, 00:05:56,     45,    0.0,   13.1,   0.00,   0.00, 1017.1,   98.8, -999.0
15-06-2023, 00:06:06,     45,    0.0,   13.1,   0.00,   0.00, 1017.1,   98.8, -999.0
15-06-2023, 00:06:16,     44,    0.0,   13.1,   0.00,   0.00, 1017.1,   98.8, -999.0
15-06-2023, 00:06:26,     45,    0.0,   13.1,   0.00,   0.00, 1017.1,   98.8, -999.0
15-06-2023, 00:06:36,     45,    0.0,   13.2,   0.00,   0.00, 1017.1,   98.8, -999.0
15-06-2023, 00:06:46,     45,    0.0,   13.1,   0.00,   0.00, 1017.1,   98.8, -999.0
15-06-2023, 00:06:56,     45,    0.0,   13.1,   0.00,   0.00, 1017.1,   98.8, -999.0
15-06-2023, 00:07:06,     45,    0.0,   13.1,   0.00,   0.00, 1017.1,   98.8, -999.0
15-06-2023, 00:07:16,     45,    0.0,   13.1,   0.00,   0.00, 1017.1,   98.9, -999.0
15-06-2023, 00:07:26,     45,    0.0,   13.1,   0.00,   0.00, 1017.1,   98.7, -999.0
15-06-2023, 00:07:36,     45,    0.0,   13.1,   0.00,   0.00, 1017.1,   98.7, -999.0
15-06-2023, 00:07:46,     45,    0.0,   13.1,   0.00,   0.00, 1017.1,   98.8, -999.0
15-06-2023, 00:07:56,     45,    0.0,   13.1,   0.00,   0.00, 1017.1,   98.8, -999.0
15-06-2023, 00:08:06,     45,    0.0,   13.1,   0.00,   0.00, 1017.1,   98.8, -999.0
15-06-2023, 00:08:16,     45,    0.0,   13.1,   0.00,   0.00, 1017.1,   98.8, -999.0
15-06-2023, 00:08:26,     45,    0.0,   13.1,   0.00,   0.00, 1017.1,   98.8, -999.0
15-06-2023, 00:08:36,     45,    0.0,   13.1,   0.00,   0.00, 1017.1,   98.8, -999.0
15-06-2023, 00:08:46,     45,    0.0,   13.0,   0.00,   0.00, 1017.1,   98.8, -999.0
15-06-2023, 00:08:56,     45,    0.0,   13.1,   0.00,   0.00, 1017.1,   98.8, -999.0
15-06-2023, 00:09:06,     45,    0.0,   13.1,   0.00,   0.00, 1017.1,   98.8, -999.0
15-06-2023, 00:09:16,     45,    0.0,   13.2,   0.00,   0.00, 1017.1,   98.8, -999.0
15-06-2023, 00:09:26,     45,    0.0,   13.2,   0.00,   0.00, 1017.1,   98.8, -999.0
15-06-2023, 00:09:36,     45,    0.0,   13.1,   0.00,   0.00, 1017.1,   98.7, -999.0
15-06-2023, 00:09:46,     45,    0.0,   13.1,   0.00,   0.00, 1017.1,   98.7, -999.0
15-06-2023, 00:09:56,     45,    0.0,   13.1,   0.00,   0.00, 1017.1,   68.5, -999.0
15-06-2023, 00:10:05,     45,    0.0,   13.1,   0.00,   0.00, 1017.1,    0.7, -999.0
15-06-2023, 00:10:16,     45,    0.0,   13.0,   0.00,   0.00, 1017.1,    0.4, -999.0
15-06-2023, 00:10:26,     46,    0.0,   13.1,   0.00,   0.00, 1017.1,    0.7, -999.0
15-06-2023, 00:10:36,     45,    0.0,   13.1,   0.00,   0.00, 1017.1,    0.5, -999.0
15-06-2023, 00:10:45,     45,    0.0,   13.1,   0.00,   0.00, 1017.1,    0.4, -999.0
15-06-2023, 00:10:56,     45,    0.0,   13.1,   0.00,   0.00, 1017.1,    0.8, -999.0
15-06-2023, 00:11:06,     45,    0.0,   13.1,   0.00,   0.00, 1017.1,    0.7, -999.0
15-06-2023, 00:11:15,     45,    0.0,   13.0,   0.00,   0.00, 1017.1,    0.5, -999.0
15-06-2023, 00:11:25,     45,    0.0,   13.1,   0.00,   0.00, 1017.1,    0.5, -999.0
15-06-2023, 00:11:36,     45,    0.0,   13.1,   0.00,   0.00, 1017.1,    0.5, -999.0
15-06-2023, 00:11:45,     45,    0.0,   13.1,   0.00,   0.00, 1017.1,    0.5, -999.0
15-06-2023, 00:11:55,     45,    0.0,   13.1,   0.00,   0.00, 1017.1,    0.9, -999.0
15-06-2023, 00:12:06,     45,    0.0,   13.1,   0.00,   0.00, 1017.1,    0.5, -999.0
15-06-2023, 00:12:15,     45,    0.0,   13.1,   0.00,   0.00, 1017.1,    0.7, -999.0
15-06-2023, 00:12:25,     45,    0.0,   13.1,   0.00,   0.00, 1017.1,    0.6, -999.0
15-06-2023, 00:12:35,     46,    0.0,   13.1,   0.00,   0.00, 1017.1,    0.5, -999.0
15-06-2023, 00:12:46,     45,    0.0,   13.1,   0.00,   0.00, 1017.1,    0.4, -999.0
15-06-2023, 00:12:55,     45,    0.0,   13.1,   0.00,   0.00, 1017.1,    0.6, -999.0
15-06-2023, 00:13:05,     45,    0.0,   13.1,   0.00,   0.00, 1017.1,    0.4, -999.0
15-06-2023, 00:13:15,     45,    0.0,   13.1,   0.00,   0.00, 1017.1,    0.8, -999.0
15-06-2023, 00:13:25,     45,    0.0,   13.1,   0.00,   0.00, 1017.1,    0.4, -999.0
15-06-2023, 00:13:35,     45,    0.0,   13.1,   0.00,   0.00, 1017.1,    0.8, -999.0
15-06-2023, 00:13:45,     45,    0.0,   13.1,   0.00,   0.00, 1017.1,    0.5, -999.0
15-06-2023, 00:13:55,     45,    0.0,   13.1,   0.00,   0.00, 1017.1,    0.6, -999.0
15-06-2023, 00:14:05,     45,    0.0,   13.1,   0.00,   0.00, 1017.1,    0.7, -999.0
15-06-2023, 00:14:15,     44,    0.0,   13.1,   0.00,   0.00, 1017.1,    1.1, -999.0
15-06-2023, 00:14:25,     45,    0.0,   13.0,   0.00,   0.00, 1017.1,    0.6, -999.0
15-06-2023, 00:14:35,     45,    0.0,   13.0,   0.00,   0.00, 1017.1,    0.5, -999.0
15-06-2023, 00:14:45,     45,    0.0,   13.0,   0.00,   0.00, 1017.1,    0.5, -999.0
15-06-2023, 00:14:55,     45,    0.0,   13.1,   0.00,   0.00, 1017.1,    0.4, -999.0
15-06-2023, 00:15:05,     45,    0.0,   13.1,   0.00,   0.00, 1017.1,    0.6, -999.0
15-06-2023, 00:15:15,     45,    0.0,   13.1,   0.00,   0.00, 1017.1,    0.5, -999.0
15-06-2023, 00:15:25,     45,    0.0,   13.0,   0.00,   0.00, 1017.1,    0.6, -999.0
15-06-2023, 00:15:35,     45,    0.0,   13.0,   0.00,   0.00, 1017.1,    0.6, -999.0
15-06-2023, 00:15:45,     45,    0.0,   13.0,   0.00,   0.00, 1017.1,    0.4, -999.0
15-06-2023, 00:15:55,     45,    0.0,   13.1,   0.00,   0.00, 1017.1,    0.8, -999.0
15-06-2023, 00:16:05,     45,    0.0,   13.0,   0.00,   0.00, 1017.1,    0.5, -999.0
15-06-2023, 00:16:15,     45,    0.0,   13.0,   0.00,   0.00, 1017.1,    0.4, -999.0
15-06-2023, 00:16:25,     45,    0.0,   13.0,   0.00,   0.00, 1017.1,    0.4, -999.0
15-06-2023, 00:16:34,     45,    0.0,   12.9,   0.00,   0.00, 1017.1,    0.6, -999.0
15-06-2023, 00:16:45,     45,    0.0,   13.0,   0.00,   0.00, 1017.1,    0.4, -999.0
15-06-2023, 00:16:55,     45,    0.0,   13.1,   0.00,   0.00, 1017.1,    0.5, -999.0
15-06-2023, 00:17:05,     45,    0.0,   13.1,   0.00,   0.00, 1017.1,    0.6, -999.0
15-06-2023, 00:17:14,     45,    0.0,   13.1,   0.00,   0.00, 1017.1,    0.4, -999.0
15-06-2023, 00:17:25,     45,    0.0,   13.1,   0.00,   0.00, 1017.1,    0.7, -999.0
15-06-2023, 00:17:35,     45,    0.0,   13.1,   0.00,   0.00, 1017.1,    0.4, -999.0
15-06-2023, 00:17:44,     45,    0.0,   13.1,   0.00,   0.00, 1017.1,    0.5, -999.0
15-06-2023, 00:17:54,     45,    0.0,   13.1,   0.00,   0.00, 1017.1,    0.5, -999.0
15-06-2023, 00:18:05,     45,    0.0,   13.1,   0.00,   0.00, 1017.1,    0.4, -999.0
15-06-2023, 00:18:14,     45,    0.0,   13.1,   0.00,   0.00, 1017.0,    0.8, -999.0
15-06-2023, 00:18:24,     45,    0.0,   13.1,   0.00,   0.00, 1017.1,    0.4, -999.0
15-06-2023, 00:18:35,     45,    0.0,   13.1,   0.00,   0.00, 1017.1,    0.5, -999.0
15-06-2023, 00:18:44,     45,    0.0,   13.0,   0.00,   0.00, 1017.1,    0.5, -999.0
15-06-2023, 00:18:54,     45,    0.0,   13.0,   0.00,   0.00, 1017.1,    0.4, -999.0
15-06-2023, 00:19:04,     45,    0.0,   13.0,   0.00,   0.00, 1017.1,    0.5, -999.0
15-06-2023, 00:19:15,     46,    0.0,   13.0,   0.00,   0.00, 1017.0,    0.4, -999.0
15-06-2023, 00:19:24,     45,    0.0,   13.1,   0.00,   0.00, 1017.1,    0.5, -999.0
15-06-2023, 00:19:34,     45,    0.0,   13.1,   0.00,   0.00, 1017.1,    0.6, -999.0
15-06-2023, 00:19:44,     45,    0.0,   13.1,   0.00,   0.00, 1017.1,    0.7, -999.0
15-06-2023, 00:19:54,     45,    0.0,   13.1,   0.00,   0.00, 1017.0,    0.3, -999.0
15-06-2023, 00:20:04,     45,    0.0,   12.9,   0.00,   0.00, 1017.1,    0.6, -999.0
15-06-2023, 00:20:14,     45,    0.0,   13.1,   0.00,   0.00, 1017.1,    0.6, -999.0
15-06-2023, 00:20:24,     45,    0.0,   13.0,   0.00,   0.00, 1017.1,    0.7, -999.0
15-06-2023, 00:20:34,     45,    0.0,   13.0,   0.00,   0.00, 1017.1,    0.4, -999.0
15-06-2023, 00:20:44,     45,    0.0,   13.0,   0.00,   0.00, 1017.1,    0.7, -999.0
15-06-2023, 00:20:54,     45,    0.0,   12.9,   0.00,   0.00, 1017.1,    0.6, -999.0
15-06-2023, 00:21:04,     45,    0.0,   13.0,   0.00,   0.00, 1017.1,    0.7, -999.0
15-06-2023, 00:21:14,     45,    0.0,   13.0,   0.00,   0.00, 1017.0,    0.6, -999.0
15-06-2023, 00:21:24,     45,    0.0,   13.0,   0.00,   0.00, 1017.1,    0.5, -999.0
15-06-2023, 00:21:34,     45,    0.0,   12.9,   0.00,   0.00, 1017.1,    0.4, -999.0
15-06-2023, 00:21:44,     45,    0.0,   13.0,   0.00,   0.00, 1017.1,    0.4, -999.0
15-06-2023, 00:21:54,     45,    0.0,   13.0,   0.00,   0.00, 1017.1,    0.5, -999.0
15-06-2023, 00:22:04,     45,    0.0,   12.9,   0.00,   0.00, 1017.1,    0.6, -999.0
15-06-2023, 00:22:14,     45,    0.0,   12.9,   0.00,   0.00, 1017.1,    0.7, -999.0
15-06-2023, 00:22:24,     45,    0.0,   12.9,   0.00,   0.00, 1017.1,    0.6, -999.0
15-06-2023, 00:22:34,     45,    0.0,   12.9,   0.00,   0.00, 1017.1,    0.6, -999.0
15-06-2023, 00:22:44,     45,    0.0,   13.0,   0.00,   0.00, 1017.1,    0.8, -999.0
15-06-2023, 00:22:54,     45,    0.0,   12.9,   0.00,   0.00, 1017.1,    0.5, -999.0
15-06-2023, 00:23:04,     45,    0.0,   12.9,   0.00,   0.00, 1017.1,    0.8, -999.0
15-06-2023, 00:23:14,     45,    0.0,   12.8,   0.00,   0.00, 1017.1,    0.6, -999.0
15-06-2023, 00:23:24,     45,    0.0,   12.8,   0.00,   0.00, 1017.1,    0.7, -999.0
15-06-2023, 00:23:34,     45,    0.0,   12.8,   0.00,   0.00, 1017.1,    0.5, -999.0
15-06-2023, 00:23:44,     45,    0.0,   12.9,   0.00,   0.00, 1017.1,    0.5, -999.0
15-06-2023, 00:23:53,     45,    0.0,   13.0,   0.00,   0.00, 1017.1,    0.4, -999.0
15-06-2023, 00:24:04,     45,    0.0,   12.9,   0.00,   0.00, 1017.1,    0.2, -999.0
15-06-2023, 00:24:14,     45,    0.0,   12.9,   0.00,   0.00, 1017.1,    0.1, -999.0
15-06-2023, 00:24:23,     45,    0.0,   12.9,   0.00,   0.00, 1017.1,    0.0, -999.0
15-06-2023, 00:24:33,     45,    0.0,   12.9,   0.00,   0.00, 1017.1,    0.1, -999.0
15-06-2023, 00:24:44,     45,    0.0,   12.9,   0.00,   0.00, 1017.1,    0.9, -999.0
15-06-2023, 00:24:53,     45,    0.0,   12.8,   0.00,   0.00, 1017.1,    0.3, -999.0
15-06-2023, 00:25:03,     45,    0.0,   12.8,   0.00,   0.00, 1017.1,    1.2, -999.0
15-06-2023, 00:25:14,     45,    0.0,   12.8,   0.00,   0.00, 1017.1,    1.0, -999.0
15-06-2023, 00:25:23,     45,    0.0,   12.9,   0.00,   0.00, 1017.1,    0.7, -999.0
15-06-2023, 00:25:33,     45,    0.0,   12.9,   0.00,   0.00, 1017.1,    0.8, -999.0
15-06-2023, 00:25:43,     45,    0.0,   12.8,   0.00,   0.00, 1017.1,    0.6, -999.0
15-06-2023, 00:25:53,     45,    0.0,   12.8,   0.00,   0.00, 1017.1,    0.6, -999.0
15-06-2023, 00:26:03,     45,    0.0,   12.9,   0.00,   0.00, 1017.1,    0.3, -999.0
15-06-2023, 00:26:13,     45,    0.0,   12.8,   0.00,   0.00, 1017.1,    0.4, -999.0
15-06-2023, 00:26:23,     45,    0.0,   12.9,   0.00,   0.00, 1017.1,    0.4, -999.0
15-06-2023, 00:26:33,     45,    0.0,   12.8,   0.00,   0.00, 1017.1,    0.6, -999.0
15-06-2023, 00:26:43,     45,    0.0,   12.9,   0.00,   0.00, 1017.1,    0.5, -999.0
15-06-2023, 00:26:53,     45,    0.0,   12.8,   0.00,   0.00, 1017.1,    0.6, -999.0
15-06-2023, 00:27:03,     45,    0.0,   12.8,   0.00,   0.00, 1017.1,    0.6, -999.0
15-06-2023, 00:27:13,     45,    0.0,   12.8,   0.00,   0.00, 1017.1,    0.4, -999.0
15-06-2023, 00:27:23,     45,    0.0,   12.8,   0.00,   0.00, 1017.1,    0.4, -999.0
15-06-2023, 00:27:33,     45,    0.0,   12.8,   0.00,   0.00, 1017.1,    0.4, -999.0
15-06-2023, 00:27:43,     45,    0.0,   12.8,   0.00,   0.00, 1017.1,    0.5, -999.0
15-06-2023, 00:27:53,     45,    0.0,   12.8,   0.00,   0.00, 1017.1,    0.6, -999.0
15-06-2023, 00:28:03,     45,    0.0,   12.8,   0.00,   0.00, 1017.1,    0.5, -999.0
15-06-2023, 00:28:13,     45,    0.0,   12.8,   0.00,   0.00, 1017.1,    0.5, -999.0
15-06-2023, 00:28:23,     45,    0.0,   12.8,   0.00,   0.00, 1017.1,    0.5, -999.0
15-06-2023, 00:28:33,     46,    0.0,   12.8,   0.00,   0.00, 1017.1,    0.5, -999.0
15-06-2023, 00:28:43,     45,    0.0,   12.8,   0.00,   0.00, 1017.1,    1.2, -999.0
15-06-2023, 00:28:53,     45,    0.0,   12.8,   0.00,   0.00, 1017.1,    0.3, -999.0
15-06-2023, 00:29:03,     45,    0.0,   12.7,   0.00,   0.00, 1017.1,    0.3, -999.0
15-06-2023, 00:29:13,     45,    0.0,   12.7,   0.00,   0.00, 1017.1,    0.3, -999.0
15-06-2023, 00:29:23,     45,    0.0,   12.7,   0.00,   0.00, 1017.1,    0.5, -999.0
15-06-2023, 00:29:33,     45,    0.0,   12.8,   0.00,   0.00, 1017.1,    0.5, -999.0
15-06-2023, 00:29:43,     45,    0.0,   12.7,   0.00,   0.00, 1017.1,    0.6, -999.0
15-06-2023, 00:29:53,     45,    0.0,   12.8,   0.00,   0.00, 1017.1,    0.5, -999.0
15-06-2023, 00:30:03,     45,    0.0,   12.7,   0.00,   0.00, 1017.1,    0.5, -999.0
15-06-2023, 00:30:12,     45,    0.0,   12.8,   0.00,   0.00, 1017.1,    0.7, -999.0
15-06-2023, 00:30:23,     45,    0.0,   12.8,   0.00,   0.00, 1017.1,    0.5, -999.0
15-06-2023, 00:30:33,     45,    0.0,   12.8,   0.00,   0.00, 1017.0,    0.5, -999.0
15-06-2023, 00:30:43,     45,    0.0,   12.8,   0.00,   0.00, 1017.1,    0.3, -999.0
15-06-2023, 00:30:52,     45,    0.0,   12.8,   0.00,   0.00, 1017.1,    0.4, -999.0
15-06-2023, 00:31:03,     45,    0.0,   12.8,   0.00,   0.00, 1017.0,    0.7, -999.0
15-06-2023, 00:31:13,     45,    0.0,   12.8,   0.00,   0.00, 1017.0,    0.6, -999.0
15-06-2023, 00:31:22,     45,    0.0,   12.8,   0.00,   0.00, 1017.1,    0.6, -999.0
15-06-2023, 00:31:32,     45,    0.0,   12.7,   0.00,   0.00, 1017.0,    0.7, -999.0
15-06-2023, 00:31:43,     45,    0.0,   12.7,   0.00,   0.00, 1017.0,    0.5, -999.0
15-06-2023, 00:31:52,     45,    0.0,   12.7,   0.00,   0.00, 1017.0,    0.5, -999.0
15-06-2023, 00:32:02,     45,    0.0,   12.7,   0.00,   0.00, 1017.0,    0.5, -999.0
15-06-2023, 00:32:12,     45,    0.0,   12.7,   0.00,   0.00, 1017.0,    0.4, -999.0
15-06-2023, 00:32:22,     45,    0.0,   12.7,   0.00,   0.00, 1017.1,    0.7, -999.0
15-06-2023, 00:32:32,     45,    0.0,   12.8,   0.00,   0.00, 1017.1,    0.5, -999.0
15-06-2023, 00:32:42,     45,    0.0,   12.7,   0.00,   0.00, 1017.1,    0.5, -999.0
15-06-2023, 00:32:52,     45,    0.0,   12.8,   0.00,   0.00, 1017.0,    0.6, -999.0
15-06-2023, 00:33:02,     45,    0.0,   12.7,   0.00,   0.00, 1017.0,    0.4, -999.0
15-06-2023, 00:33:12,     45,    0.0,   12.6,   0.00,   0.00, 1017.1,    0.7, -999.0
15-06-2023, 00:33:22,     45,    0.0,   12.8,   0.00,   0.00, 1017.1,    0.4, -999.0
15-06-2023, 00:33:32,     45,    0.0,   12.9,   0.00,   0.00, 1017.1,    0.6, -999.0
15-06-2023, 00:33:42,     45,    0.0,   12.8,   0.00,   0.00, 1017.1,    0.6, -999.0
15-06-2023, 00:33:52,     45,    0.0,   12.7,   0.00,   0.00, 1017.1,    0.4, -999.0
15-06-2023, 00:34:02,     45,    0.0,   12.8,   0.00,   0.00, 1017.0,    0.5, -999.0
15-06-2023, 00:34:12,     45,    0.0,   12.7,   0.00,   0.00, 1017.0,    0.5, -999.0
15-06-2023, 00:34:22,     45,    0.0,   12.7,   0.00,   0.00, 1017.1,    0.5, -999.0
15-06-2023, 00:34:32,     45,    0.0,   12.7,   0.00,   0.00, 1017.0,    0.5, -999.0
15-06-2023, 00:34:42,     45,    0.0,   12.7,   0.00,   0.00, 1017.1,    0.6, -999.0
15-06-2023, 00:34:52,     45,    0.0,   12.8,   0.00,   0.00, 1017.1,    0.6, -999.0
15-06-2023, 00:35:02,     45,    0.0,   12.8,   0.00,   0.00, 1017.1,    0.4, -999.0
15-06-2023, 00:35:12,     45,    0.0,   12.7,   0.00,   0.00, 1017.1,    0.6, -999.0
15-06-2023, 00:35:22,     45,    0.0,   12.8,   0.00,   0.00, 1017.0,    0.5, -999.0
15-06-2023, 00:35:32,     45,    0.0,   12.7,   0.00,   0.00, 1017.1,    0.5, -999.0
15-06-2023, 00:35:42,     45,    0.0,   12.8,   0.00,   0.00, 1017.1,    0.4, -999.0
15-06-2023, 00:35:52,     46,    0.0,   12.7,   0.00,   0.00, 1017.1,    0.7, -999.0
15-06-2023, 00:36:02,     44,    0.0,   12.7,   0.00,   0.00, 1017.0,    0.5, -999.0
15-06-2023, 00:36:12,     45,    0.0,   12.8,   0.00,   0.00, 1017.1,    0.5, -999.0
15-06-2023, 00:36:22,     45,    0.0,   12.7,   0.00,   0.00, 1017.0,    0.1, -999.0
15-06-2023, 00:36:32,     45,    0.0,   12.7,   0.00,   0.00, 1017.1,    0.5, -999.0
15-06-2023, 00:36:41,     45,    0.0,   12.8,   0.00,   0.00, 1017.1,    0.5, -999.0
15-06-2023, 00:36:52,     45,    0.0,   12.7,   0.00,   0.00, 1017.1,    0.6, -999.0
15-06-2023, 00:37:02,     45,    0.0,   12.7,   0.00,   0.00, 1017.1,    0.6, -999.0
15-06-2023, 00:37:12,     44,    0.0,   12.7,   0.00,   0.00, 1017.1,    0.6, -999.0
15-06-2023, 00:37:21,     45,    0.0,   12.7,   0.00,   0.00, 1017.0,    0.4, -999.0
15-06-2023, 00:37:32,     45,    0.0,   12.8,   0.00,   0.00, 1017.1,    0.5, -999.0
15-06-2023, 00:37:42,     45,    0.0,   12.7,   0.00,   0.00, 1017.1,    0.6, -999.0
15-06-2023, 00:37:51,     45,    0.0,   12.6,   0.00,   0.00, 1017.1,    0.4, -999.0
15-06-2023, 00:38:01,     45,    0.0,   12.7,   0.00,   0.00, 1017.1,    0.4, -999.0
15-06-2023, 00:38:12,     45,    0.0,   12.7,   0.00,   0.00, 1017.1,    0.5, -999.0
15-06-2023, 00:38:21,     45,    0.0,   12.7,   0.00,   0.00, 1017.0,    0.6, -999.0
15-06-2023, 00:38:31,     45,    0.0,   12.7,   0.00,   0.00, 1017.0,    0.4, -999.0
15-06-2023, 00:38:42,     45,    0.0,   12.7,   0.00,   0.00, 1017.0,    0.6, -999.0
15-06-2023, 00:38:51,     45,    0.0,   12.7,   0.00,   0.00, 1017.0,    0.4, -999.0
15-06-2023, 00:39:01,     45,    0.0,   12.6,   0.00,   0.00, 1017.1,    0.8, -999.0
15-06-2023, 00:39:11,     45,    0.0,   12.6,   0.00,   0.00, 1017.1,    0.7, -999.0
15-06-2023, 00:39:21,     45,    0.0,   12.6,   0.00,   0.00, 1017.1,    0.6, -999.0
15-06-2023, 00:39:31,     45,    0.0,   12.6,   0.00,   0.00, 1017.1,    0.5, -999.0
15-06-2023, 00:39:41,     45,    0.0,   12.7,   0.00,   0.00, 1017.0,    0.5, -999.0
15-06-2023, 00:39:51,     45,    0.0,   12.6,   0.00,   0.00, 1017.0,    0.6, -999.0
15-06-2023, 00:40:01,     45,    0.0,   12.6,   0.00,   0.00, 1017.0,    0.3, -999.0
15-06-2023, 00:40:11,     45,    0.0,   12.6,   0.00,   0.00, 1017.1,    0.7, -999.0
15-06-2023, 00:40:21,     45,    0.0,   12.5,   0.00,   0.00, 1017.0,    0.4, -999.0
15-06-2023, 00:40:31,     45,    0.0,   12.6,   0.00,   0.00, 1017.1,    0.4, -999.0
15-06-2023, 00:40:41,     45,    0.0,   12.6,   0.00,   0.00, 1017.0,    0.7, -999.0
15-06-2023, 00:40:51,     45,    0.0,   12.5,   0.00,   0.00, 1017.1,    0.6, -999.0
15-06-2023, 00:41:01,     45,    0.0,   12.5,   0.00,   0.00, 1017.1,    0.6, -999.0
15-06-2023, 00:41:11,     45,    0.0,   12.6,   0.00,   0.00, 1017.1,    0.5, -999.0
15-06-2023, 00:41:21,     45,    0.0,   12.6,   0.00,   0.00, 1017.1,    0.5, -999.0
15-06-2023, 00:41:31,     45,    0.0,   12.5,   0.00,   0.00, 1017.0,    0.6, -999.0
15-06-2023, 00:41:41,     45,    0.0,   12.4,   0.00,   0.00, 1017.1,    0.5, -999.0
15-06-2023, 00:41:51,     45,    0.0,   12.5,   0.00,   0.00, 1017.1,    0.5, -999.0
15-06-2023, 00:42:01,     45,    0.0,   12.6,   0.00,   0.00, 1017.1,    0.3, -999.0
15-06-2023, 00:42:11,     45,    0.0,   12.5,   0.00,   0.00, 1017.0,    1.0, -999.0
15-06-2023, 00:42:21,     45,    0.0,   12.5,   0.00,   0.00, 1017.1,    0.3, -999.0
15-06-2023, 00:42:31,     45,    0.0,   12.6,   0.00,   0.00, 1017.1,    1.0, -999.0
15-06-2023, 00:42:41,     45,    0.0,   12.6,   0.00,   0.00, 1017.1,    0.3, -999.0
15-06-2023, 00:42:51,     45,    0.0,   12.5,   0.00,   0.00, 1017.1,    0.4, -999.0
15-06-2023, 00:43:01,     45,    0.0,   12.5,   0.00,   0.00, 1017.1,    0.6, -999.0
15-06-2023, 00:43:11,     45,    0.0,   12.5,   0.00,   0.00, 1017.1,    0.2, -999.0
15-06-2023, 00:43:21,     45,    0.0,   12.6,   0.00,   0.00, 1017.1,    0.6, -999.0
15-06-2023, 00:43:31,     45,    0.0,   12.5,   0.00,   0.00, 1017.1,    0.9, -999.0
15-06-2023, 00:43:40,     45,    0.0,   12.6,   0.00,   0.00, 1017.1,    0.8, -999.0
15-06-2023, 00:43:51,     45,    0.0,   12.5,   0.00,   0.00, 1017.1,    0.2, -999.0
15-06-2023, 00:44:01,     45,    0.0,   12.5,   0.00,   0.00, 1017.0,    0.7, -999.0
15-06-2023, 00:44:10,     45,    0.0,   12.5,   0.00,   0.00, 1017.1,    0.6, -999.0
15-06-2023, 00:44:20,     44,    0.0,   12.5,   0.00,   0.00, 1017.1,    0.5, -999.0
15-06-2023, 00:44:31,     45,    0.0,   12.5,   0.00,   0.00, 1017.1,    0.4, -999.0
15-06-2023, 00:44:41,     45,    0.0,   12.4,   0.00,   0.00, 1017.1,    0.6, -999.0
15-06-2023, 00:44:50,     45,    0.0,   12.6,   0.00,   0.00, 1017.1,    0.5, -999.0
15-06-2023, 00:45:00,     45,    0.0,   12.5,   0.00,   0.00, 1017.1,    0.6, -999.0
15-06-2023, 00:45:11,     45,    0.0,   12.5,   0.00,   0.00, 1017.1,    0.5, -999.0
15-06-2023, 00:45:20,     45,    0.0,   12.5,   0.00,   0.00, 1017.0,    0.3, -999.0
15-06-2023, 00:45:30,     45,    0.0,   12.5,   0.00,   0.00, 1017.1,    0.6, -999.0
15-06-2023, 00:45:40,     45,    0.0,   12.4,   0.00,   0.00, 1017.1,    0.5, -999.0
15-06-2023, 00:45:50,     39,    0.0,   12.5,   0.00,   0.00, 1017.1,    0.6, -999.0
15-06-2023, 00:46:00,     45,    0.0,   12.5,   0.00,   0.00, 1017.1,    0.6, -999.0
15-06-2023, 00:46:10,     45,    0.0,   12.4,   0.00,   0.00, 1017.0,    0.6, -999.0
15-06-2023, 00:46:20,     44,    0.0,   12.5,   0.00,   0.00, 1017.1,    0.5, -999.0
15-06-2023, 00:46:30,     45,    0.0,   12.5,   0.00,   0.00, 1017.1,    0.5, -999.0
15-06-2023, 00:46:40,     45,    0.0,   12.5,   0.00,   0.00, 1017.1,    0.7, -999.0
15-06-2023, 00:46:50,     45,    0.0,   12.5,   0.00,   0.00, 1017.0,    0.4, -999.0